Annette Island, AK

7:14 AM AKDT on May 25, 2017 (GMT -0800)
Annette Island

Weather History for PANT - October, 2013

Change the Weather History Date:

Tuesday, October 29, 2013

  Actual Average Record
Temperature  
Mean Temperature 45 °F 43 °F  
Max Temperature 49 °F 48 °F 65 °F (1962)
Min Temperature 40 °F 39 °F 22 °F (1984)
Degree Days  
Heating Degree Days 20 22  
Month to date heating degree days 473 521  
Since 1 July heating degree days 1035 1256  
Cooling Degree Days 0    
Month to date cooling degree days 0  
Year to date cooling degree days 22  
Moisture  
Dew Point 45 °F    
Average Humidity 0    
Maximum Humidity 0    
Minimum Humidity 0    
Precipitation  
Precipitation 0.02 in 0.47 in 3.50 in (1958)
Month to date precipitation 7.96 12.96  
Year to date precipitation 67.07 77.66  
Snow  
Snow 0.00 in 0.00 in T in (2005)
Month to date snowfall 0.0 0.1  
Since 1 July snowfall 0.0 0.1  
Since 1 September snowfall 0.0 0.1  
Snow Depth 0.00 in    
Sea Level Pressure  
Sea Level Pressure 29.92 in    
Wind  
Wind Speed 6 mph (SE)    
Max Wind Speed 14 mph    
Max Gust Speed 18 mph    
Visibility 9 miles    
Events Rain    
T = Trace of Precipitation, MM = Missing Value Source: NWS Daily Summary

Daily Weather History Graph

Daily Weather History Graph

Search for Another Location

Airport or City:

Trip Planner

Search our weather history database for the weather conditions in past years. The results will help you decide how hot, cold, wet, or windy it might be!

Date:

Astronomy

Oct. 29, 2013 Rise Set
Actual Time 7:44 AM AKDT 5:14 PM AKDT
Civil Twilight 7:06 AM AKDT 5:52 PM AKDT
Nautical Twilight 6:23 AM AKDT 6:35 PM AKDT
Astronomical Twilight 5:41 AM AKDT 7:16 PM AKDT
Moon 1:54 AM AKDT (10/29) 3:13 PM AKDT (10/29)
Length of Visible Light 10h 45m
Length of Day
9h 29m
Waning Crescent, 24% of the Moon is Illuminated
Oct 29
Waning Crescent
Nov 3
New
Nov 9
First Quarter
Nov 17
Full
Nov 25
Last Quarter

Hourly Weather History & Observations

Time (AKDT) Temp. Windchill Dew Point Humidity Pressure Visibility Wind Dir Wind Speed Gust Speed Precip Events Conditions
12:53 AM 39.9 °F - 39.0 °F 97% 29.97 in 10.0 mi Calm Calm - N/A   Clear
1:53 AM 42.1 °F 40.2 °F 41.0 °F 96% 29.96 in 10.0 mi ESE 3.5 mph - N/A   Partly Cloudy
2:53 AM 43.0 °F - 42.1 °F 97% 29.96 in 10.0 mi Calm Calm - N/A   Overcast
3:53 AM 43.0 °F - 41.0 °F 93% 29.94 in 10.0 mi Calm Calm - N/A   Overcast
4:53 AM 46.0 °F 44.8 °F 42.1 °F 86% 29.94 in 10.0 mi SSE 3.5 mph - N/A   Overcast
5:53 AM 46.0 °F - 43.0 °F 89% 29.94 in 10.0 mi Calm Calm - N/A   Overcast
6:53 AM 46.0 °F 44.8 °F 43.0 °F 89% 29.92 in 10.0 mi SE 3.5 mph - N/A   Overcast
7:53 AM 46.9 °F - 44.1 °F 90% 29.92 in 10.0 mi SE 5.8 mph - N/A   Overcast
8:17 AM 46.4 °F 43.5 °F 42.8 °F 87% 29.92 in 10.0 mi SE 5.8 mph - N/A   Overcast
8:53 AM 48.0 °F - 42.1 °F 80% 29.92 in 10.0 mi SE 4.6 mph - N/A   Overcast
9:53 AM 48.0 °F - 44.1 °F 86% 29.94 in 10.0 mi SSE 4.6 mph - 0.00 in   Overcast
10:53 AM 46.9 °F - 44.1 °F 90% 29.94 in 7.0 mi SE 6.9 mph - 0.00 in Rain Light Rain
11:12 AM 46.4 °F 42.9 °F 44.6 °F 93% 29.93 in 6.0 mi SE 6.9 mph - 0.00 in Rain Light Rain
11:20 AM 46.4 °F 43.5 °F 44.6 °F 93% 29.93 in 3.0 mi SE 5.8 mph - 0.00 in Rain Light Rain
11:53 AM 48.0 °F - 45.0 °F 89% 29.94 in 4.0 mi SE 5.8 mph - 0.00 in Rain Light Rain
12:53 PM 48.0 °F - 45.0 °F 89% 29.93 in 8.0 mi East 3.5 mph - 0.00 in   Overcast
1:53 PM 48.0 °F - 46.0 °F 93% 29.93 in 10.0 mi ESE 4.6 mph - N/A   Overcast
2:53 PM 48.9 °F - 46.0 °F 90% 29.92 in 10.0 mi SE 8.1 mph - N/A   Overcast
3:33 PM 48.2 °F - 46.4 °F 93% 29.91 in 10.0 mi SE 8.1 mph - N/A   Overcast
3:53 PM 48.9 °F - 46.0 °F 90% 29.91 in 10.0 mi ESE 6.9 mph - N/A   Overcast
4:53 PM 48.0 °F - 46.0 °F 93% 29.90 in 10.0 mi ESE 8.1 mph - N/A   Overcast
5:53 PM 48.0 °F - 46.0 °F 93% 29.90 in 10.0 mi SE 8.1 mph - N/A   Overcast
6:53 PM 48.0 °F - 46.9 °F 96% 29.90 in 6.0 mi ESE 6.9 mph - N/A   Overcast
7:53 PM 48.0 °F - 46.9 °F 96% 29.89 in 4.0 mi ESE 8.1 mph - 0.00 in Rain Light Rain
8:15 PM 46.4 °F 42.4 °F 46.4 °F 100% 29.89 in 7.0 mi ESE 8.1 mph - 0.00 in   Overcast
8:33 PM 46.4 °F 42.4 °F 46.4 °F 100% 29.89 in 5.0 mi ESE 8.1 mph - 0.01 in Rain Light Rain
8:53 PM 46.9 °F - 46.9 °F 100% 29.89 in 4.0 mi SE 9.2 mph - 0.01 in   Overcast
9:51 PM 46.4 °F 41.9 °F 46.4 °F 100% 29.88 in 10.0 mi ESE 9.2 mph - 0.01 in   Overcast
9:53 PM 46.9 °F - 46.9 °F 100% 29.89 in 10.0 mi SE 9.2 mph - 0.01 in   Overcast
10:42 PM 48.2 °F - 46.4 °F 93% 29.88 in 10.0 mi SE 6.9 mph - N/A   Overcast
10:53 PM 48.0 °F - 46.0 °F 93% 29.89 in 10.0 mi ESE 9.2 mph - N/A   Overcast
11:17 PM 48.2 °F - 46.4 °F 93% 29.88 in 10.0 mi SE 8.1 mph - 0.00 in   Overcast
11:53 PM 48.0 °F - 45.0 °F 89% 29.86 in 10.0 mi ESE 9.2 mph - 0.00 in   Overcast